Temp
5 5 5 5 5 4 3 4 4 6 4 7 7 7 8 6 5 4 4 4 3 4 5 5 4 5 5 5 5 5 5 4 4 4 4 5 6 5 5 5 4 5 5 4
2 5 4 3 5 4 4 5 4 5 6 9 9 9 8 5 4 3 3 2 4 3 4 4 3 4 5 5 5 4 3 2 1 2 2 2 1 2 2 2 2 2 1 1
4 4 4 4 5 5 4 4 6 5 7 8 8 8 6 4 3 2 2 2 2 2 3 2 3 3 4 4 3 3 2 1 0 -0 0 1 0 0 0 0 -0 -0 -0 1
4 3 4 7 6 5 6 6 5 6 7 8 8 7 5 4 3 2 2 2 2 1 1 2 2 2 3 3 2 2 1 0 -0 -1 -0 -0 -1 -0 -1 -1 -0 -1 -1 -1
4 6 5 8 6 6 6 9 6 6 7 7 7 5 4 3 3 2 1 1 1 1 1 1 1 1 1 1 1 0 0 -1 -1 -1 -1 -1 -2 -2 -2 -1 -1 -1 -1 -1
3 5 5 7 8 8 8 8 8 6 6 7 6 7 5 3 2 1 0 0 -0 0 0 0 1 0 -0 -0 -0 -1 -1 -1 -1 -1 -1 -1 -2 -1 -2 -1 -1 -1 -2 -2
3 4 5 5 7 8 8 8 9 8 8 7 6 6 5 3 2 1 0 -1 -1 -0 -0 0 1 -0 -0 -1 -1 -2 -2 -1 -2 -2 -1 -1 -1 -1 -1 -1 -1 -2 -2 -2
4 5 4 7 8 9 9 9 9 8 8 7 7 5 5 4 2 1 0 -1 -1 -1 -0 0 -0 -1 -1 -1 -2 -2 -1 -1 -1 -1 -1 -1 -1 -1 -2 -2 -2 -2 -2 -3
5 5 7 8 8 10 10 9 8 8 8 7 6 6 5 4 3 3 1 -0 -1 -1 -0 -0 -1 -0 -0 -1 -2 -2 -1 -1 -1 -1 -1 -1 -1 -1 -1 -2 -2 -2 -2 -3
6 8 6 9 9 9 9 8 8 8 7 7 7 6 5 4 4 3 2 1 0 0 -0 -0 -0 -0 -1 -2 -1 -1 -1 -1 -1 -1 -1 -1 -1 -2 -2 -2 -3 -3 -3 -4
5 6 8 9 9 9 9 9 8 8 7 7 6 6 5 5 4 3 2 1 2 2 1 0 0 -0 -0 -0 -1 -1 -1 -1 -1 -1 -1 -2 -2 -2 -2 -2 -3 -4 -4 -5
7 6 6 8 9 9 8 8 8 7 7 7 6 5 5 5 4 4 2 0 0 1 0 -0 -1 -1 -1 -1 -1 -1 -0 -1 -1 -1 -2 -2 -2 -2 -3 -3 -4 -4 -5 -6
6 6 7 8 7 7 7 7 7 7 7 6 6 5 5 5 4 3 2 2 1 -0 -0 1 0 0 -0 -1 -1 -1 -1 -1 -1 -2 -2 -2 -3 -3 -4 -4 -5 -5 -6 -7
4 4 6 6 6 6 6 7 7 7 6 6 5 4 5 4 3 3 3 3 2 1 1 1 1 0 -0 -0 -0 -1 -1 -1 -1 -2 -2 -2 -3 -3 -4 -4 -5 -6 -6 -7
3 3 3 4 5 5 6 6 6 6 5 5 4 4 4 4 4 3 3 2 2 2 1 1 1 1 0 0 -0 -1 -1 -1 -2 -2 -2 -2 -3 -3 -4 -4 -5 -6 -6 -7
3 3 3 3 4 4 4 5 5 5 5 4 4 4 3 3 3 3 2 2 2 2 2 1 1 1 1 0 -0 -1 -1 -2 -2 -2 -2 -2 -3 -3 -4 -4 -5 -6 -6 -7
0 1 2 3 3 3 4 4 4 5 5 4 4 3 3 2 2 2 2 2 2 2 2 2 1 1 0 -0 -0 -1 -1 -1 -2 -2 -2 -2 -3 -3 -4 -4 -5 -6 -7 -7
-0 -0 0 1 2 2 3 4 4 4 5 4 3 3 2 2 2 2 1 1 1 1 1 1 1 0 0 0 -0 -1 -1 -1 -2 -2 -2 -3 -3 -4 -4 -5 -6 -6 -7 -8
-0 0 0 1 1 2 2 3 4 4 4 4 3 3 3 2 2 1 1 1 1 1 1 0 0 -0 -0 0 -0 -1 -1 -1 -2 -2 -2 -3 -3 -4 -4 -5 -6 -7 -7 -7
-0 0 0 1 1 2 2 3 3 3 3 3 3 2 2 1 1 1 0 1 1 2 1 1 1 0 -0 -0 -0 -1 -1 -1 -2 -2 -3 -3 -4 -4 -5 -5 -6 -7 -7 -8
-0 0 1 1 1 1 2 2 2 2 2 2 2 2 2 1 1 1 1 1 1 1 1 1 1 0 0 -0 -0 -1 -1 -2 -2 -2 -3 -3 -4 -4 -5 -6 -6 -7 -7 -8
0 1 1 1 1 1 1 1 2 2 2 2 2 1 1 1 1 1 1 1 1 1 1 1 0 0 -0 -0 -1 -1 -1 -2 -2 -2 -3 -3 -4 -5 -5 -6 -6 -7 -8 -8
1 1 1 1 1 1 1 1 1 1 1 1 1 2 1 1 1 1 2 1 1 0 0 0 0 -0 -1 -1 -1 -1 -2 -2 -2 -3 -3 -4 -4 -5 -5 -6 -7 -7 -8 -8
0 0 0 0 0 0 1 1 0 1 1 1 1 0 0 0 1 1 0 0 0 1 1 -0 -0 -1 -1 -1 -1 -1 -2 -2 -3 -3 -4 -4 -4 -5 -5 -6 -7 -7 -7 -8
-1 -1 -0 -0 -0 -0 -1 -1 -1 -1 -0 -0 -0 0 -0 -0 -0 -0 -1 -1 -0 1 0 -0 -1 -1 -1 -1 -2 -2 -2 -3 -3 -3 -4 -4 -5 -5 -6 -6 -7 -7 -7 -7
-1 -1 -1 -2 -2 -2 -2 -2 -1 -1 -1 -1 -1 -1 -1 -1 -1 -0 -1 -1 -2 -0 -0 -1 -1 -1 -1 -2 -2 -2 -3 -3 -3 -4 -4 -4 -5 -5 -6 -6 -7 -7 -7 -7
-2 -2 -2 -3 -3 -3 -2 -2 -2 -2 -2 -2 -2 -2 -2 -1 -1 -1 -2 -2 -2 -2 -1 -2 -2 -2 -2 -2 -2 -3 -3 -3 -4 -4 -4 -4 -5 -5 -6 -6 -7 -7 -7 -7
Height
1488 1488 1489 1488 1488 1494 1499 1496 1498 1487 1489 1472 1470 1470 1469 1470 1469 1468 1466 1465 1463 1461 1459 1457 1455 1453 1450 1447 1445 1443 1441 1439 1438 1436 1435 1433 1432 1432 1432 1431 1432 1430 1433 1439
1497 1487 1489 1491 1488 1490 1490 1488 1487 1486 1479 1467 1466 1466 1468 1468 1467 1466 1464 1463 1462 1461 1458 1458 1455 1452 1449 1447 1445 1444 1442 1440 1439 1437 1435 1434 1432 1432 1432 1433 1434 1435 1436 1441
1493 1490 1488 1490 1478 1479 1482 1480 1477 1484 1466 1462 1463 1465 1465 1466 1465 1463 1462 1462 1460 1459 1458 1457 1455 1453 1450 1448 1447 1446 1444 1442 1441 1440 1438 1437 1438 1438 1436 1437 1440 1442 1442 1445
1491 1493 1497 1467 1466 1467 1469 1467 1470 1466 1462 1462 1463 1463 1463 1462 1462 1462 1460 1459 1459 1459 1459 1458 1456 1455 1451 1450 1449 1448 1446 1445 1444 1443 1442 1442 1442 1442 1441 1442 1444 1448 1448 1449
1492 1482 1479 1461 1464 1465 1465 1459 1459 1462 1459 1461 1461 1461 1462 1461 1460 1459 1458 1459 1459 1459 1459 1458 1456 1455 1453 1451 1450 1449 1448 1447 1447 1447 1447 1448 1447 1448 1448 1450 1449 1452 1453 1454
1492 1482 1480 1462 1458 1457 1458 1462 1456 1457 1457 1458 1460 1460 1459 1459 1458 1458 1458 1458 1458 1458 1458 1458 1457 1456 1455 1453 1452 1451 1450 1450 1451 1452 1452 1453 1453 1453 1454 1455 1454 1456 1457 1459
1490 1484 1473 1460 1456 1458 1463 1465 1455 1455 1455 1456 1457 1457 1456 1457 1457 1457 1457 1457 1457 1457 1458 1457 1457 1456 1456 1455 1455 1454 1454 1455 1456 1457 1457 1458 1459 1459 1460 1461 1461 1462 1462 1462
1483 1477 1482 1456 1456 1458 1457 1454 1454 1453 1453 1453 1454 1454 1455 1456 1457 1457 1456 1456 1456 1457 1458 1457 1458 1458 1458 1458 1458 1458 1459 1460 1460 1461 1462 1463 1464 1464 1464 1464 1464 1464 1464 1465
1470 1467 1454 1454 1454 1453 1453 1453 1452 1451 1451 1451 1451 1452 1453 1455 1456 1456 1455 1455 1456 1458 1458 1458 1459 1461 1461 1461 1462 1462 1463 1464 1465 1465 1466 1466 1467 1468 1468 1467 1467 1466 1466 1465
1461 1451 1453 1452 1451 1451 1449 1449 1449 1449 1448 1448 1449 1450 1451 1453 1454 1455 1456 1456 1457 1458 1459 1460 1462 1464 1464 1464 1465 1466 1466 1467 1468 1469 1469 1469 1469 1469 1469 1468 1467 1467 1466 1465
1457 1452 1450 1449 1450 1449 1448 1447 1447 1446 1446 1446 1446 1448 1449 1450 1453 1455 1457 1457 1458 1459 1461 1462 1464 1466 1467 1467 1468 1468 1469 1469 1470 1471 1471 1471 1471 1470 1469 1469 1468 1467 1466 1464
1449 1448 1449 1447 1447 1447 1446 1446 1445 1444 1444 1443 1444 1446 1447 1449 1451 1454 1455 1457 1458 1460 1462 1463 1465 1467 1468 1468 1469 1470 1470 1471 1471 1472 1472 1472 1471 1471 1470 1468 1467 1465 1464 1463
1445 1445 1445 1444 1443 1443 1442 1442 1442 1442 1442 1442 1442 1443 1445 1447 1449 1451 1453 1455 1458 1459 1461 1462 1464 1466 1468 1469 1470 1471 1471 1472 1472 1472 1472 1472 1471 1470 1469 1467 1466 1465 1463 1461
1443 1443 1442 1441 1441 1440 1440 1439 1439 1439 1439 1439 1440 1441 1443 1444 1446 1449 1450 1453 1456 1458 1460 1462 1464 1466 1467 1469 1470 1470 1471 1472 1472 1472 1472 1471 1470 1469 1468 1467 1465 1464 1462 1460
1440 1440 1440 1438 1438 1437 1436 1436 1436 1436 1436 1436 1437 1438 1439 1441 1443 1445 1448 1451 1454 1457 1459 1460 1462 1464 1466 1468 1469 1470 1471 1471 1471 1471 1470 1469 1469 1468 1467 1465 1463 1461 1460 1458
1436 1436 1435 1435 1433 1433 1433 1433 1432 1433 1432 1432 1433 1434 1436 1438 1441 1443 1445 1447 1449 1452 1456 1458 1460 1462 1464 1466 1468 1469 1469 1469 1469 1469 1469 1468 1468 1466 1465 1463 1461 1460 1458 1456
1432 1431 1430 1429 1429 1429 1429 1429 1429 1429 1428 1428 1430 1431 1432 1434 1437 1439 1441 1444 1448 1452 1454 1456 1458 1460 1462 1464 1465 1466 1467 1467 1467 1467 1467 1467 1465 1464 1462 1461 1459 1457 1456 1454
1429 1428 1427 1426 1425 1423 1423 1423 1424 1424 1424 1425 1426 1427 1428 1430 1432 1434 1438 1440 1443 1447 1451 1454 1456 1457 1459 1461 1463 1464 1464 1465 1465 1466 1465 1464 1463 1462 1460 1459 1457 1455 1453 1450
1425 1424 1424 1423 1421 1419 1418 1417 1418 1419 1420 1421 1422 1423 1425 1428 1430 1432 1434 1436 1439 1442 1446 1449 1452 1454 1456 1458 1460 1461 1462 1463 1463 1463 1463 1461 1460 1459 1457 1455 1453 1451 1449 1447
1423 1422 1421 1420 1419 1417 1415 1414 1413 1414 1415 1417 1419 1420 1422 1423 1426 1428 1430 1431 1435 1440 1444 1446 1449 1451 1453 1455 1456 1458 1459 1460 1460 1460 1459 1458 1457 1455 1453 1451 1449 1447 1445 1442
1422 1421 1420 1418 1416 1415 1414 1413 1413 1413 1414 1415 1416 1418 1419 1421 1422 1424 1426 1428 1432 1436 1439 1442 1445 1447 1449 1451 1453 1454 1455 1456 1457 1456 1455 1454 1453 1451 1449 1447 1445 1443 1441 1438
1422 1421 1420 1418 1416 1415 1414 1412 1412 1412 1412 1413 1414 1415 1416 1418 1420 1421 1424 1426 1430 1432 1434 1437 1440 1443 1446 1448 1449 1450 1451 1452 1453 1452 1451 1450 1449 1447 1446 1444 1441 1439 1437 1434
1422 1421 1419 1418 1416 1415 1414 1412 1412 1411 1411 1411 1411 1413 1414 1415 1417 1418 1420 1423 1425 1427 1430 1434 1436 1439 1441 1443 1444 1446 1447 1448 1448 1448 1447 1446 1444 1443 1441 1439 1437 1435 1432 1430
1421 1419 1418 1417 1415 1414 1413 1411 1411 1410 1410 1409 1409 1409 1410 1411 1412 1414 1416 1418 1421 1424 1427 1431 1433 1435 1437 1438 1440 1441 1442 1443 1444 1443 1443 1442 1440 1439 1437 1434 1432 1430 1427 1425
1419 1418 1416 1415 1413 1412 1411 1410 1409 1408 1407 1406 1406 1406 1406 1407 1408 1410 1411 1413 1416 1419 1422 1425 1428 1431 1432 1434 1435 1437 1438 1439 1439 1439 1438 1437 1436 1434 1432 1430 1428 1426 1423 1421
1417 1416 1415 1413 1411 1410 1408 1407 1406 1405 1404 1404 1404 1403 1403 1403 1404 1404 1406 1408 1410 1413 1417 1419 1423 1425 1427 1429 1430 1432 1433 1434 1434 1434 1434 1433 1431 1429 1427 1425 1423 1421 1419 1417
1416 1414 1413 1411 1410 1408 1406 1405 1403 1403 1402 1401 1401 1401 1400 1400 1400 1400 1401 1403 1405 1408 1411 1414 1416 1419 1422 1424 1426 1427 1428 1429 1430 1430 1429 1428 1427 1425 1422 1420 1418 1416 1414 1413
Wind_Speed
1 1 3 3 4 7 6 5 6 3 6 7 7 7 13 0 7 9 10 10 11 11 11 12 13 13 14 14 17 17 15 13 11 11 7 7 8 8 8 9 11 13 17 17
3 0 5 4 7 9 9 4 10 7 17 13 17 11 2 3 4 6 6 7 9 8 9 11 13 13 13 11 13 14 13 10 9 8 5 2 2 5 7 8 9 12 16 19
2 3 3 5 10 14 5 5 9 7 10 3 3 6 2 2 4 6 5 6 8 8 8 8 10 11 11 12 11 11 9 8 7 6 6 7 8 9 11 13 17 19 20 17
1 3 1 4 3 8 13 6 12 7 7 6 7 7 3 3 6 5 4 5 5 5 6 8 9 8 9 10 10 8 7 6 6 5 7 9 10 14 17 18 17 16 16 15
1 2 6 1 2 5 6 2 8 12 12 10 5 3 2 2 5 4 3 3 2 2 4 5 6 8 10 8 10 9 7 8 10 9 11 13 16 17 16 15 17 17 16 14
1 2 3 3 1 2 3 1 2 7 6 4 4 1 2 2 4 3 2 2 1 0 1 4 4 6 7 9 11 13 14 14 14 14 15 15 15 16 16 15 15 13 12 10
3 2 6 7 7 2 2 3 2 7 8 7 3 3 3 2 3 2 1 1 1 2 3 4 5 6 6 10 14 16 16 16 16 16 17 16 15 13 12 11 12 13 11 10
3 3 6 5 2 3 1 3 4 6 8 8 8 6 3 2 2 2 3 3 4 5 6 7 7 7 11 15 17 17 17 17 16 15 15 13 12 13 13 12 11 10 8 7
7 5 5 1 4 4 9 16 13 6 6 7 11 10 7 5 3 3 5 6 8 9 10 8 13 11 15 17 16 15 14 15 13 13 14 13 11 10 9 8 7 6 5 5
1 2 7 15 12 12 12 8 7 7 6 7 10 11 11 9 7 6 9 11 12 13 14 16 16 14 15 15 14 13 14 14 13 11 10 10 8 8 7 6 6 5 5 5
4 7 12 14 9 7 8 8 9 9 8 8 11 14 13 13 11 9 10 15 14 15 17 16 14 13 13 13 11 11 11 11 10 8 8 7 6 6 6 5 5 5 6 7
4 4 2 6 6 12 15 12 11 11 9 8 11 15 15 14 14 12 13 15 17 17 16 16 15 14 13 12 11 8 8 8 7 6 5 5 5 5 6 8 10 10 10 9
4 6 10 14 15 11 12 10 10 9 9 8 10 15 16 16 16 16 16 15 17 17 17 16 16 14 12 11 10 8 5 4 4 3 3 3 4 6 8 9 9 9 8 8
8 8 5 2 4 11 11 10 10 10 10 9 11 15 15 16 18 19 19 16 16 16 16 15 14 13 11 10 8 6 4 3 2 1 1 4 6 7 8 8 9 9 9 9
10 9 11 15 15 11 9 10 11 12 11 11 12 15 18 20 20 20 20 20 18 17 17 16 14 12 11 9 8 6 4 3 2 1 4 5 6 7 8 9 10 10 10 10
13 15 12 9 10 10 11 10 11 11 11 11 12 15 16 17 17 19 22 22 24 22 20 17 15 12 11 10 8 7 6 3 1 2 4 6 6 8 9 10 11 11 11 11
11 11 13 14 13 13 14 12 12 11 11 11 11 13 15 17 18 21 23 23 21 19 18 17 15 14 12 10 9 7 5 3 3 4 5 6 7 8 10 11 12 11 11 12
9 11 11 13 16 17 15 15 17 14 12 11 12 14 16 19 21 22 23 24 23 21 21 19 17 14 12 10 8 7 6 5 5 6 7 7 8 10 11 12 13 12 12 12
5 7 8 9 10 12 13 12 12 14 13 12 14 14 14 16 17 18 19 23 24 24 22 22 19 16 13 11 9 8 8 8 7 7 8 8 8 10 12 13 13 13 13 13
3 4 5 5 4 7 6 6 7 9 10 11 12 13 15 16 17 18 19 22 21 21 21 21 20 16 14 12 11 11 10 10 9 8 8 8 9 11 13 14 14 14 14 15
7 7 7 6 6 6 6 3 0 2 5 8 9 10 11 11 13 16 20 22 22 22 22 21 20 18 15 14 14 13 12 11 10 9 9 9 10 12 13 14 15 15 15 16
9 10 10 8 7 7 5 4 2 3 4 5 8 10 11 12 13 16 18 19 18 21 24 23 21 19 17 16 15 14 13 12 10 10 10 10 11 13 14 15 16 16 16 16
8 9 9 10 9 7 6 4 4 4 5 5 7 9 10 10 12 15 16 17 19 23 23 22 21 20 19 18 17 15 14 12 11 10 10 11 12 13 14 16 16 16 16 15
9 10 9 9 8 8 6 6 5 5 6 7 9 9 12 12 13 13 14 13 15 19 21 21 22 21 21 19 18 16 14 12 11 11 11 12 12 14 15 16 16 16 15 14
9 9 10 9 8 8 8 7 8 8 7 7 8 9 11 13 14 14 15 15 16 20 20 21 22 22 22 20 18 16 14 13 12 11 12 13 13 15 16 17 16 16 15 14
9 10 10 10 11 11 12 11 9 8 8 7 8 9 10 12 14 15 16 17 17 19 21 22 23 24 23 20 18 16 15 13 12 12 13 14 14 16 17 16 16 16 15 15
8 9 10 10 10 12 12 12 11 10 10 10 9 9 10 11 12 14 16 18 19 22 20 23 22 23 22 20 19 17 15 13 12 12 13 14 15 16 17 16 15 15 14 16
Wind_Direction
263 188 179 193 167 188 200 186 177 248 222 263 278 294 309 319 356 348 357 359 358 360 14 5 10 7 10 7 1 359 350 354 341 325 313 282 265 242 227 216 205 193 182 177
339 85 223 245 220 205 221 235 256 251 284 270 277 295 238 338 340 335 1 351 350 355 18 9 12 8 7 10 16 5 3 9 6 355 337 316 129 183 166 155 153 151 145 146
271 348 318 287 225 199 196 207 206 199 231 330 318 329 315 301 334 345 344 343 350 5 8 11 13 8 5 8 10 11 13 16 30 39 58 74 85 109 115 122 129 135 138 145
254 357 259 237 161 182 207 225 215 261 265 261 303 304 308 321 336 335 334 351 4 8 7 21 23 11 11 13 17 24 20 31 49 75 89 105 125 125 120 123 126 127 127 129
133 258 287 257 174 150 183 285 207 227 259 276 272 296 260 279 337 350 342 339 355 3 17 24 23 16 17 26 36 49 60 62 68 77 93 102 104 104 116 118 120 123 123 124
179 243 232 247 199 196 205 331 224 202 238 232 185 311 228 253 355 1 324 292 283 303 32 46 34 22 29 57 68 86 86 86 89 93 98 106 109 113 117 119 121 120 120 110
234 265 283 250 258 230 108 215 243 243 251 254 201 212 141 122 44 41 31 307 207 175 104 81 66 53 69 83 93 91 92 95 98 101 103 105 107 108 110 112 104 97 91 83
199 217 269 199 112 165 208 303 295 274 267 241 218 189 163 146 87 89 86 121 139 129 120 106 91 99 108 107 99 98 100 101 103 102 101 99 101 99 90 81 78 77 71 64
180 212 239 276 275 288 283 293 290 272 279 233 208 195 178 167 149 91 93 125 135 136 127 116 113 115 115 104 103 108 113 112 112 109 104 101 98 91 87 81 68 53 40 20
48 247 240 269 305 297 301 280 267 281 282 253 220 205 188 176 164 139 118 116 128 131 126 121 117 123 118 117 119 123 121 117 113 107 99 93 85 80 68 61 42 27 14 360
254 287 280 284 276 323 327 300 291 294 287 263 224 211 202 185 172 157 145 132 133 134 132 130 134 134 126 126 126 126 121 113 108 102 96 87 79 65 48 33 30 21 10 5
215 183 270 269 271 312 308 300 290 287 280 263 229 215 203 194 186 176 164 158 154 153 153 149 150 151 143 136 132 132 128 120 113 100 88 72 50 33 21 20 13 3 356 351
225 246 282 286 290 291 293 291 287 278 278 268 230 214 210 202 195 186 177 175 172 168 163 154 150 153 154 151 147 143 136 121 109 97 72 41 24 18 13 3 355 344 339 341
269 278 268 299 293 306 296 284 279 276 278 264 234 217 215 211 202 198 191 183 181 181 168 163 162 164 168 167 163 157 155 146 138 132 56 22 14 5 356 347 342 342 343 343
242 254 282 295 299 295 295 283 276 276 275 263 237 222 217 214 212 205 194 189 190 191 186 179 178 178 181 183 181 179 186 190 178 56 12 359 351 347 343 343 344 342 342 340
269 286 298 288 299 283 275 277 276 280 272 261 238 224 221 220 215 206 202 195 197 198 195 192 188 187 191 194 195 195 199 197 235 334 337 337 336 340 342 341 339 336 334 333
294 304 305 299 300 288 277 272 266 280 277 257 241 224 216 212 208 207 205 202 199 204 203 199 197 193 195 198 199 204 214 230 268 303 314 318 326 335 336 335 334 331 330 331
289 297 301 299 301 297 287 272 259 265 280 260 233 224 218 214 214 212 210 202 200 204 204 203 202 200 200 205 210 219 234 249 268 287 301 311 322 330 332 332 332 330 327 325
289 298 305 305 303 298 291 278 258 249 259 246 231 231 228 227 222 216 213 209 209 209 208 206 204 203 206 213 221 230 241 251 265 281 295 304 318 327 328 329 329 326 323 322
348 333 327 327 320 326 311 288 260 244 231 227 228 225 226 223 221 216 213 215 215 219 216 213 211 210 211 219 227 235 243 250 262 276 292 302 314 322 324 325 326 323 320 319
35 19 8 3 9 10 9 4 353 221 222 230 237 236 236 229 224 219 215 215 213 214 214 215 215 218 220 225 230 237 242 251 262 277 293 301 312 319 321 321 323 320 318 317
40 34 28 21 10 0 360 1 339 256 245 244 234 230 231 230 229 225 227 229 222 219 215 213 214 218 223 227 232 239 244 251 262 276 292 300 309 315 317 318 319 317 317 317
10 11 12 13 17 11 2 344 315 285 264 252 245 243 244 243 237 235 233 231 221 218 218 218 217 220 226 230 234 239 244 251 263 277 292 297 304 310 314 315 316 314 315 315
352 350 348 346 345 340 334 341 334 307 283 271 264 254 246 243 238 232 232 228 229 229 221 220 222 224 231 231 235 240 245 252 262 276 290 295 300 307 311 313 314 311 313 313
339 340 342 341 332 332 332 333 335 327 318 300 282 269 258 250 245 230 228 223 221 225 222 221 224 227 233 233 235 240 245 252 262 276 288 293 300 307 311 313 311 310 311 308
324 330 335 338 337 335 332 331 328 324 320 314 307 290 274 260 249 240 233 235 221 227 222 219 225 233 236 234 235 240 246 252 263 277 290 295 300 307 311 310 308 309 309 309
322 327 327 327 326 322 321 320 316 314 309 306 306 302 290 278 266 252 238 230 226 226 224 224 220 233 240 237 236 239 244 250 261 279 294 296 303 308 309 307 306 306 307 307